When you browse on this site, cookies collect data to enhance your experience and personalize the content and advertising you see.
Visit our Privacy Policy to learn more. By continuing to use the site, you agree to this use of cookies and data.
  • In Lithuania
  • List of Countries
  • For 7 days
  • Water Temperature
  • Satellite Maps
  • Weather Map
  • Weather Widgets
  • user-avatar
    Login

    Hourly Weather Sretensk

    Today, 22 July, Monday

    Time Temperature Precipitation Wind Pressure Humidity
    00:00 +14°C° 0.5 mm 1 mps 704 mmHg 98%
    01:00 +14°C° 0.5 mm 1 mps 704 mmHg 98%
    02:00 +14°C° 0 mm 1 mps 704 mmHg 98%
    03:00 +14°C° 0.3 mm 1 mps 704 mmHg 98%
    04:00 +14°C° 0.3 mm 1 mps 703 mmHg 98%
    05:00 +14°C° 0.3 mm 1 mps 703 mmHg 98%
    06:00 +14°C° 0.2 mm 1 mps 703 mmHg 98%
    07:00 +14°C° 0.2 mm 1 mps 704 mmHg 97%
    08:00 +15°C° 0.2 mm 1 mps 704 mmHg 96%
    09:00 +15°C° 0 mm 1 mps 704 mmHg 93%
    10:00 +16°C° 0 mm 1 mps 704 mmHg 91%
    11:00 +18°C° 0 mm 1 mps 704 mmHg 89%
    12:00 +18°C° 0 mm 1 mps 704 mmHg 87%
    13:00 +18°C° 0 mm 1 mps 704 mmHg 86%
    14:00 +19°C° 0 mm 1 mps 704 mmHg 84%
    15:00 +19°C° 0 mm 1 mps 704 mmHg 83%
    16:00 +19°C° 0 mm 1 mps 704 mmHg 82%
    17:00 +20°C° 0 mm 1 mps 704 mmHg 81%
    18:00 +19°C° 0 mm 1 mps 705 mmHg 84%
    19:00 +18°C° 0 mm 1 mps 705 mmHg 87%
    20:00 +18°C° 0 mm 1 mps 705 mmHg 91%
    21:00 +16°C° 0 mm 2 mps 705 mmHg 90%
    22:00 +16°C° 0 mm 2 mps 705 mmHg 89%
    23:00 +15°C° 0 mm 2 mps 705 mmHg 89%

    Tomorrow, 23 July, Tuesday

    Time Temperature Precipitation Wind Pressure Humidity
    00:00 +15°C° 0 mm 2 mps 705 mmHg 88%
    01:00 +15°C° 0 mm 2 mps 705 mmHg 87%
    02:00 +14°C° 0 mm 2 mps 705 mmHg 87%
    03:00 +14°C° 0 mm 2 mps 705 mmHg 85%
    04:00 +14°C° 0 mm 1 mps 705 mmHg 84%
    05:00 +14°C° 0 mm 1 mps 704 mmHg 83%
    06:00 +15°C° 0 mm 2 mps 705 mmHg 78%
    07:00 +16°C° 0 mm 2 mps 705 mmHg 74%
    08:00 +17°C° 0 mm 2 mps 705 mmHg 69%
    09:00 +19°C° 0 mm 3 mps 705 mmHg 62%
    10:00 +21°C° 0 mm 3 mps 705 mmHg 54%
    11:00 +25°C° 0 mm 3 mps 705 mmHg 46%
    12:00 +26°C° 0 mm 3 mps 705 mmHg 43%
    13:00 +27°C° 0 mm 4 mps 705 mmHg 39%
    14:00 +28°C° 0 mm 4 mps 705 mmHg 35%
    15:00 +28°C° 0 mm 4 mps 704 mmHg 37%
    16:00 +27°C° 0 mm 5 mps 704 mmHg 38%
    17:00 +27°C° 0 mm 5 mps 704 mmHg 39%
    18:00 +23°C° 0 mm 4 mps 705 mmHg 47%
    19:00 +21°C° 0 mm 3 mps 705 mmHg 55%
    20:00 +19°C° 0 mm 2 mps 705 mmHg 63%
    21:00 +18°C° 0 mm 2 mps 705 mmHg 66%
    22:00 +17°C° 0 mm 2 mps 705 mmHg 70%
    23:00 +16°C° 0 mm 2 mps 705 mmHg 73%

    Day after tomorrow, 24 July, Wednesday

    Time Temperature Precipitation Wind Pressure Humidity
    00:00 +15°C° 0 mm 2 mps 705 mmHg 76%
    01:00 +14°C° 0 mm 2 mps 705 mmHg 79%
    02:00 +14°C° 0 mm 2 mps 706 mmHg 82%
    03:00 +14°C° 0 mm 2 mps 705 mmHg 83%
    04:00 +13°C° 0 mm 2 mps 705 mmHg 85%
    05:00 +13°C° 0 mm 2 mps 705 mmHg 86%
    06:00 +14°C° 0 mm 2 mps 705 mmHg 79%
    07:00 +16°C° 0 mm 3 mps 706 mmHg 72%
    08:00 +17°C° 0 mm 3 mps 706 mmHg 65%
    09:00 +18°C° 0 mm 3 mps 706 mmHg 63%
    10:00 +18°C° 0 mm 4 mps 706 mmHg 61%
    11:00 +18°C° 0 mm 4 mps 706 mmHg 60%
    12:00 +18°C° 0 mm 4 mps 706 mmHg 64%
    13:00 +17°C° 0 mm 3 mps 706 mmHg 69%
    14:00 +16°C° 0 mm 3 mps 706 mmHg 74%
    15:00 +14°C° 0 mm 3 mps 706 mmHg 77%
    16:00 +14°C° 0 mm 3 mps 706 mmHg 80%
    17:00 +14°C° 0 mm 3 mps 706 mmHg 83%
    18:00 +15°C° 0 mm 2 mps 706 mmHg 82%
    19:00 +14°C° 0 mm 2 mps 706 mmHg 82%
    20:00 +14°C° 0 mm 2 mps 706 mmHg 82%
    21:00 +14°C° 0 mm 1 mps 706 mmHg 84%
    22:00 +14°C° 0 mm 1 mps 706 mmHg 85%
    23:00 +13°C° 0 mm 1 mps 706 mmHg 87%

    25 July, Thursday

    Time Temperature Precipitation Wind Pressure Humidity
    00:00 +13°C° 0 mm 1 mps 706 mmHg 87%
    01:00 +13°C° 0 mm 1 mps 706 mmHg 87%
    02:00 +13°C° 0 mm 1 mps 706 mmHg 88%
    03:00 +13°C° 0 mm 1 mps 706 mmHg 88%
    04:00 +13°C° 0 mm 1 mps 706 mmHg 89%
    05:00 +12°C° 0 mm 1 mps 706 mmHg 90%
    06:00 +13°C° 0 mm 1 mps 706 mmHg 85%
    07:00 +14°C° 0 mm 1 mps 706 mmHg 79%
    08:00 +15°C° 0 mm 2 mps 706 mmHg 74%
    09:00 +17°C° 0 mm 2 mps 706 mmHg 68%
    10:00 +18°C° 0 mm 2 mps 706 mmHg 62%
    11:00 +20°C° 0 mm 2 mps 706 mmHg 56%
    12:00 +22°C° 0 mm 1 mps 705 mmHg 53%
    13:00 +23°C° 0 mm 1 mps 705 mmHg 50%
    14:00 +24°C° 0 mm 1 mps 705 mmHg 47%
    15:00 +24°C° 0 mm 1 mps 705 mmHg 48%
    16:00 +24°C° 0 mm 1 mps 705 mmHg 49%
    17:00 +24°C° 0 mm 1 mps 704 mmHg 49%
    18:00 +22°C° 0 mm 1 mps 704 mmHg 57%
    19:00 +20°C° 0 mm 1 mps 704 mmHg 66%
    20:00 +18°C° 0 mm 1 mps 704 mmHg 74%
    21:00 +15°C° 0 mm 1 mps 704 mmHg 80%
    22:00 +13°C° 0 mm 0 mps 704 mmHg 85%
    23:00 +12°C° 0 mm 0 mps 704 mmHg 91%

    26 July, Friday

    Time Temperature Precipitation Wind Pressure Humidity
    00:00 +12°C° 0 mm 0 mps 704 mmHg 91%
    01:00 +11°C° 0 mm 0 mps 704 mmHg 92%
    02:00 +11°C° 0 mm 0 mps 704 mmHg 92%
    03:00 +11°C° 0 mm 0 mps 704 mmHg 93%
    04:00 +11°C° 0 mm 0 mps 704 mmHg 94%
    05:00 +10°C° 0 mm 0 mps 704 mmHg 94%
    06:00 +14°C° 0 mm 1 mps 704 mmHg 84%
    07:00 +18°C° 0 mm 1 mps 705 mmHg 73%
    08:00 +20°C° 0 mm 1 mps 705 mmHg 63%
    09:00 +22°C° 0 mm 1 mps 705 mmHg 56%
    10:00 +24°C° 0 mm 1 mps 705 mmHg 50%
    11:00 +26°C° 0 mm 2 mps 704 mmHg 44%
    12:00 +27°C° 0 mm 2 mps 704 mmHg 41%
    13:00 +28°C° 0 mm 2 mps 704 mmHg 38%
    14:00 +28°C° 0 mm 2 mps 704 mmHg 35%
    15:00 +28°C° 0 mm 2 mps 704 mmHg 35%
    16:00 +29°C° 0 mm 2 mps 704 mmHg 35%
    17:00 +29°C° 0 mm 2 mps 704 mmHg 35%
    18:00 +26°C° 0 mm 2 mps 703 mmHg 44%
    19:00 +23°C° 0 mm 2 mps 703 mmHg 53%
    20:00 +21°C° 0 mm 1 mps 703 mmHg 62%
    21:00 +19°C° 0 mm 1 mps 703 mmHg 69%
    22:00 +18°C° 0 mm 1 mps 703 mmHg 75%
    23:00 +14°C° 0 mm 0 mps 703 mmHg 82%

    27 July, Saturday

    Time Temperature Precipitation Wind Pressure Humidity
    00:00 +14°C° 0 mm 0 mps 704 mmHg 84%
    01:00 +13°C° 0 mm 0 mps 704 mmHg 86%
    02:00 +13°C° 0 mm 0 mps 704 mmHg 88%
    03:00 +13°C° 0 mm 0 mps 704 mmHg 88%
    04:00 +12°C° 0 mm 0 mps 704 mmHg 88%
    05:00 +12°C° 0 mm 0 mps 704 mmHg 88%
    06:00 +16°C° 0 mm 1 mps 705 mmHg 77%
    07:00 +21°C° 0 mm 1 mps 705 mmHg 65%
    08:00 +24°C° 0 mm 1 mps 705 mmHg 53%
    09:00 +26°C° 0 mm 1 mps 705 mmHg 46%
    10:00 +27°C° 0 mm 2 mps 705 mmHg 39%
    11:00 +29°C° 0 mm 2 mps 705 mmHg 32%
    12:00 +30°C° 0 mm 2 mps 705 mmHg 29%
    13:00 +31°C° 0 mm 2 mps 705 mmHg 27%
    14:00 +31°C° 0 mm 2 mps 705 mmHg 25%
    15:00 +31°C° 0 mm 2 mps 705 mmHg 26%
    16:00 +31°C° 0 mm 3 mps 704 mmHg 27%
    17:00 +31°C° 0 mm 3 mps 704 mmHg 28%
    18:00 +28°C° 0 mm 2 mps 704 mmHg 38%
    19:00 +25°C° 0 mm 1 mps 704 mmHg 48%
    20:00 +22°C° 0 mm 1 mps 704 mmHg 57%
    21:00 +21°C° 0 mm 1 mps 704 mmHg 62%
    22:00 +20°C° 0 mm 1 mps 704 mmHg 66%
    23:00 +19°C° 0 mm 1 mps 704 mmHg 70%
    Show more